Regional Weather Roundup
Issued by NWS

Home | Current Version | Previous Version | Text Only | Print | Product List | Glossary Off
Versions: 1 2 3 4 5 6 7 8 9 10 11 12 13 14 15 16 17 18 19 20 21 22 23 24 25 26 27 28 29 30 31 32 33 34 35 36 37 38 39 40 41 42 43 44 45 46 47 48 49 50

000
ASUS43 KDMX 231207
RWRIA

WEATHER ROUNDUP FOR IOWA
NATIONAL WEATHER SERVICE DES MOINES IA
700 AM CDT WED JUL 23 2014

NOTE: "FAIR" INDICATES FEW OR NO CLOUDS BELOW 12,000 FEET WITH NO
SIGNIFICANT WEATHER AND/OR OBSTRUCTIONS TO VISIBILITY.

* - THESE STATIONS ARE NOT NWS STATIONS...THUS NOT UNDER NWS
QUALITY CONTROL.  THEY ALSO DO NOT REPORT WEATHER SUCH
AS PRECIPITATION OR FOG.

IAZ001>003-012>014-020>022-031>034-043>046-231300-
   NORTHWEST IOWA

CITY           SKY/WX    TMP DP  RH WIND       PRES   REMARKS
CARROLL *      CLEAR     61  57  88 N6        30.22R
CHEROKEE *     PTCLDY    60  58  94 NE6       30.26R
DENISON *      CLEAR     59  59 100 N3        30.23R
LE MARS *      CLEAR     59  57  94 CALM      30.27R
ORANGE CITY *  CLEAR     63  54  72 NE3       30.27R
SHELDON *      CLEAR     57  55  94 N5        30.27R
SIOUX CITY     CLEAR     63  58  83 N6        30.26R
6HR MIN TEMP:  60; 6HR MAX TEMP:  69;

SPENCER        CLEAR     59  55  87 N6        30.25R
6HR MIN TEMP:  56; 6HR MAX TEMP:  62;

STORM LAKE *   CLEAR     63  59  88 NE9       30.25R
$$

IAZ055>058-069>071-079>083-090>094-231300-
   SOUTHWEST IOWA

CITY           SKY/WX    TMP DP  RH WIND       PRES   REMARKS
ATLANTIC *     CLEAR     61  57  88 CALM      30.21R
AUDUBON *      CLEAR     64  61  88 N5        30.23R
CLARINDA *     CLEAR     63  61  94 N3        30.21R
COUNCIL BLFS * CLEAR     63  61  94 N6        30.22R
CRESTON *      CLEAR     64  59  82 NE10      30.19R
HARLAN  *      CLEAR     61  57  88 N5        30.26R
LAMONI         CLEAR     66  62  87 N6        30.16S
6HR MIN TEMP:  65; 6HR MAX TEMP:  72;

RED OAK *      CLEAR     63  59  88 NW3       30.21R
SHENANDOAH *   CLEAR     63  61  94 N5        30.21S
$$

IAZ047>049-059>061-072>074-084-231300-
   CENTRAL IOWA

CITY           SKY/WX    TMP DP  RH WIND       PRES   REMARKS
AMES           CLEAR     63  58  83 N6        30.19R
6HR MIN TEMP:  61; 6HR MAX TEMP:  70;

ANKENY *       CLEAR     64  59  82 N7        30.17S
CHARITON *     CLEAR     64  63  94 N7        30.16S
DES MOINES     CLEAR     68  59  73 N7        30.17R
6HR MIN TEMP:  67; 6HR MAX TEMP:  75;

GRINNELL*      SUNNY     64  61  88 N5        30.18R
KNOXVILLE *    CLEAR     68  63  83 N9        30.16R
MARSHALLTOWN   SUNNY     63  60  90 N8        30.17R
6HR MIN TEMP:  61; 6HR MAX TEMP:  67;

PELLA *        CLEAR     65  62  90 N6        30.18R
PERRY *          N/A     63  59  88 N5        30.20R
$$

IAZ004>006-015-016-023>025-035-036-231300-
   NORTH CENTRAL IOWA

CITY           SKY/WX    TMP DP  RH WIND       PRES   REMARKS
ALGONA *       CLEAR     57  55  94 N5        30.24R
CLARION *      CLEAR     59  57  94 CALM      30.22R
ESTHERVILLE    CLEAR     58  54  86 N8        30.25R
6HR MIN TEMP:  55; 6HR MAX TEMP:  63;

FORT DODGE *   CLEAR     59  55  88 N3        30.23R
MASON CITY     SUNNY     58  56  93 N6        30.24R
6HR MIN TEMP:  56; 6HR MAX TEMP:  62;

FOREST CITY *  CLEAR     61  57  88 N3        30.23R
IOWA FALLS *     N/A     63  57  82 N6        30.21S
$$

IAZ007>011-017>019-026>030-037>042-050>054-066-231300-
   NORTHEAST IOWA

CITY           SKY/WX    TMP DP  RH WIND       PRES   REMARKS
CEDAR RAPIDS   SUNNY     68  61  78 NE10      30.14S
6HR MIN TEMP:  66; 6HR MAX TEMP:  71;

CHARLES CITY * SUNNY     61  59  94 N5        30.22R
DECORAH *      SUNNY     63  59  88 CALM      30.20R
DUBUQUE        SUNNY     64  60  87 NE10      30.17S
6HR MIN TEMP:  63; 6HR MAX TEMP:  71;

MONTICELLO *   SUNNY     64  61  88 MISG      30.15F
OELWEIN *      SUNNY     63  61  94 N6        30.20R
WATERLOO       SUNNY     64  60  87 CALM      30.17S
6HR MIN TEMP:  61; 6HR MAX TEMP:  66;

$$

IAZ064-065-067-068-078-231300-
   EAST CENTRAL IOWA

CITY           SKY/WX    TMP DP  RH WIND       PRES   REMARKS
DAVENPORT      SUNNY     67  62  84 NE13      30.14R
6HR MIN TEMP:  66; 6HR MAX TEMP:  71;

IOWA CITY      SUNNY     68  63  84 NE12      30.15R
6HR MIN TEMP:  68; 6HR MAX TEMP:  77;

MT. PLEASANT * SUNNY     68  65  89 N9        30.13R
MUSCATINE *    SUNNY     68  63  83 NE12      30.13R
QUAD CITIES    SUNNY     70  63  78 NE7       30.12R
6HR MIN TEMP:  69; 6HR MAX TEMP:  78;

$$

IAZ062-063-075>077-085>089-095>099-231300-
   SOUTHEAST IOWA

CITY           SKY/WX    TMP DP  RH WIND       PRES   REMARKS
BURLINGTON     SUNNY     71  66  84 N15       30.10R
6HR MIN TEMP:  70; 6HR MAX TEMP:  78;

FAIRFIELD *    SUNNY     66  64  94 N6        30.13S
FORT MADISON * SUNNY     70  68  94 N7        30.11R
KEOKUK *       SUNNY     72  66  83 N9G16     30.09R
OSKALOOSA *      N/A     66  64  93 N7        30.15R
CENTERVILLE *  CLEAR     66  66 100 N6        30.16R
OTTUMWA        SUNNY     67  63  87 N6        30.14R
6HR MIN TEMP:  66; 6HR MAX TEMP:  71;

WASHINGTON *   SUNNY     66  64  94 NE7       30.13S
$$

ABBREVIATIONS USED IN REMARKS
   TC - TEMPERATURES IN CELSIUS
  WCI - WIND CHILL INDEX
   HX - HEAT INDEX
  VSB - VISIBILITY
$$




USA.gov is the U.S. government's official web portal to all federal, state and local government web resources and services.